SCP
-0 0 0 0 -0 -0 -0 -0 -0 -0 -0 -0 -0 -0 -0 -0 -0 -0 -0 -0 -0 -0 -0 -0 -0 -0 -0 -0 -0 -0 -0 -0 -0 -0 -0 -0 -0 -0 -0 -0 -0 0 -0
-0 0 0 0 -0 -0 -0 -0 -0 -0 -0 -0 -0 -0 -0 -0 -0 -0 -0 -0 -0 -0 -0 -0 -0 -0 -0 -0 -0 -0 -0 -0 -0 -0 -0 -0 -0 -0 -0 -0 -0 0 -0
0 0 0 0 0 -0 -0 0 -0 -0 -0 -0 -0 -0 -0 -0 -0 -0 -0 -0 -0 -0 -0 -0 -0 -0 -0 -0 -0 -0 -0 -0 -0 -0 -0 0 -0 -0 -0 -0 -0 -0 0
0 0 0 0 0 0 0 -0 0 -0 -0 -0 -0 -0 -0 -0 -0 -0 -0 -0 -0 -0 -0 -0 -0 -0 -0 -0 -0 -0 -0 -0 -0 -0 0 0 0 -0 -0 -0 -0 0 0
0 0 0 0 0 0 0 0 0 0 0 0 -0 -0 -0 -0 -0 -0 -0 -0 -0 -0 -0 -0 -0 -0 -0 -0 -0 -0 -0 -0 -0 -0 0 0 0 0 -0 -0 0 0 0
0 0 0 0 0 0 0 0 0 0 0 0 0 0 -0 -0 -0 -0 -0 -0 -0 -0 -0 -0 -0 -0 -0 -0 -0 -0 -0 -0 -0 0 0 0 0 0 0 0 0 0 0
0 0 0 0 0 0 0 0 0 0 0 0 0 -0 -0 -0 -0 -0 -0 -0 -0 -0 -0 -0 -0 -0 -0 -0 -0 -0 -0 -0 0 0 0 0 -0 0 0 0 0 0 0
0 0 0 0 0 0 0 0 0 0 -0 -0 -0 -0 -0 -0 -0 -0 -0 -0 -0 -0 -0 -0 -0 -0 -0 -0 -0 -0 0 0 0 0 0 0 0 0 0 0 0 0 0
0 0 0 0 0 0 0 0 -0 -0 -0 -0 -0 -0 -0 -0 -0 -0 -0 -0 -0 -0 -0 -0 -0 -0 -0 -0 0 0 0 0 0 0 0 0 0 0 0 0 0 0 0
-0 -0 -0 -0 0 0 0 -0 -0 -0 -0 -0 -0 -0 -0 -0 -0 -0 -0 -0 -0 -0 -0 -0 -0 -0 -0 -0 0 0 0 0 0 0 0 0 0 0 0 0 0 0 0
-0 -0 0 0 0 0 0 0 -0 -0 -0 -0 -0 -0 0 0 0 -0 -0 -0 -0 -0 -0 0 0 0 0 0 0 0 0 0 0 0 0 0 0 0 0 0 0 0 0
-0 0 0 0 0 0 0 0 0 0 0 0 0 0 0 0 0 0 0 0 0 0 0 0 0 0 0 0 0 0 0 0 0 0 0 0 0 0 0 0 0 0 0
-0 -0 -0 0 0 0 0 0 0 0 0 0 0 0 0 0 0 0 0 0 0 0 0 0 0 0 0 0 0 0 0 0 0 0 0 0 0 0 0 0 0 0 0
-0 -0 -0 -0 -0 -0 0 0 -0 -0 -0 0 0 -0 0 0 0 0 0 0 0 0 0 0 0 0 0 0 0 0 0 0 0 0 0 0 0 0 0 0 0 0 0
-0 -0 -0 -0 -0 -0 -0 -0 -0 -0 -0 -0 -0 -0 -0 0 0 0 0 0 0 0 0 0 0 0 0 0 0 0 0 0 0 0 0 0 0 0 0 0 0 0 0
0 -0 -0 -0 -0 -0 -0 -0 -0 -0 -0 0 0 0 0 0 0 0 0 0 0 0 0 0 0 0 0 0 0 0 0 0 0 0 0 0 0 0 0 0 0 0 0
0 0 0 0 0 -0 -0 -0 0 0 0 0 0 0 0 0 0 0 0 0 0 0 0 0 0 0 0 0 0 0 0 0 0 0 0 0 0 0 0 0 0 0 0
0 0 0 0 0 0 0 0 0 0 0 0 0 0 0 0 0 0 0 0 0 0 0 0 0 0 0 0 0 0 0 0 0 0 0 0 0 0 0 0 0 0 0
0 0 0 0 0 0 0 0 0 0 0 0 0 0 0 0 0 0 0 0 0 0 0 0 0 0 0 0 0 0 0 0 0 0 0 0 0 0 0 0 0 0 0
0 0 0 0 0 0 0 0 0 0 0 0 0 0 0 0 0 0 0 0 0 0 0 0 0 0 0 0 0 0 0 0 0 0 0 0 0 0 0 0 0 0 0
0 0 0 0 0 0 0 0 0 0 0 0 0 0 0 0 0 0 0 0 0 0 0 0 0 0 0 0 0 0 0 0 0 0 0 0 0 0 0 0 0 0 0
0 0 0 0 0 0 0 0 0 0 0 0 0 0 0 0 0 0 0 0 0 0 0 0 0 0 0 0 0 0 0 0 0 0 0 0 0 0 0 0 0 0 0
0 0 0 0 0 0 0 0 0 0 0 0 0 0 0 0 0 0 0 0 0 0 0 0 0 0 0 0 0 0 0 0 0 0 0 0 0 0 0 0 0 0 0
0 0 0 0 0 0 0 0 0 0 0 0 0 0 0 0 0 0 0 0 0 0 0 0 0 0 0 0 0 0 0 0 0 0 0 0 0 0 0 0 0 0 0
0 0 0 0 0 0 0 0 0 0 0 0 0 0 0 0 0 0 0 0 0 0 0 0 0 0 0 0 0 0 0 0 0 0 0 0 0 0 0 0 0 0 0
0 0 0 0 0 0 0 0 0 0 0 0 0 0 0 0 0 0 0 0 0 0 0 0 0 0 0 0 0 0 0 0 0 0 0 0 0 0 0 0 0 0 0
Wind_Speed_500mb
31 20 17 17 15 18 17 18 18 18 21 22 20 20 22 22 20 22 21 24 24 31 31 31 33 33 33 33 33 33 32 30 29 29 27 25 25 23 21 19 18 23 25
30 21 18 19 19 17 18 20 21 23 26 23 18 18 19 20 20 18 22 25 25 27 24 27 29 30 29 28 26 26 24 22 19 18 17 17 21 24 14 15 15 17 15
29 25 20 20 20 16 18 23 24 27 30 30 23 26 26 25 23 28 30 27 25 24 24 27 27 26 24 21 20 20 20 20 17 15 17 22 29 32 29 23 17 14 9
27 27 23 22 21 19 21 24 25 26 28 28 26 27 30 29 29 30 34 32 29 27 24 23 23 22 20 18 18 20 21 24 23 23 23 24 22 23 20 18 17 18 19
29 28 24 24 21 21 24 26 27 27 25 24 26 27 29 29 28 27 26 28 28 26 23 20 20 21 21 19 22 23 25 25 23 22 25 24 25 23 23 17 16 19 21
31 29 26 25 23 22 26 26 27 26 24 23 23 23 26 26 27 27 27 25 23 22 22 19 18 17 22 22 19 20 23 24 19 21 21 19 23 21 26 22 21 10 10
33 31 28 26 23 22 25 25 24 24 24 23 23 23 23 23 24 24 24 22 22 22 23 21 19 17 16 15 16 18 20 22 21 22 23 24 24 19 19 21 21 17 11
33 32 31 29 26 23 24 24 22 20 21 21 21 21 22 24 23 22 21 21 21 21 22 21 20 16 13 10 11 17 21 21 22 23 23 23 20 16 15 16 21 21 17
35 32 32 31 28 25 23 21 20 17 18 18 18 18 18 21 20 19 19 19 19 19 21 20 18 15 10 8 11 17 23 24 24 25 23 21 15 16 13 14 19 21 18
37 33 30 31 30 26 24 21 18 16 14 13 13 14 14 15 16 16 16 16 17 18 17 16 12 9 6 6 11 18 21 25 25 26 23 25 24 21 21 21 22 21 22
40 37 32 30 29 27 25 22 19 16 13 10 8 9 11 12 13 12 13 14 14 14 14 13 9 3 2 5 9 14 15 19 21 23 23 25 27 28 26 24 24 23 23
45 43 37 33 30 28 26 22 20 17 14 10 5 6 7 9 11 11 9 10 10 10 11 8 5 1 4 6 7 9 10 14 17 20 22 25 27 28 28 26 23 24 23
43 44 41 37 34 31 28 25 23 19 17 14 9 5 4 5 7 10 9 8 7 5 6 5 4 1 2 3 6 8 8 11 14 17 19 21 22 23 24 26 27 27 25
45 41 43 40 38 35 32 29 25 23 20 18 14 10 6 6 4 5 7 6 4 2 3 3 2 2 2 3 3 6 7 10 14 17 17 18 19 22 24 25 25 26 26
47 43 43 43 41 39 37 34 32 29 25 22 21 18 13 10 6 4 2 3 3 1 2 3 4 3 3 4 3 4 5 8 13 15 17 19 20 22 24 26 28 29 29
46 44 42 43 41 41 41 39 37 34 30 29 27 24 20 16 13 10 7 5 3 3 4 5 6 6 7 7 7 8 9 11 15 18 21 23 25 28 30 32 33 34 36
51 42 45 43 41 41 38 41 42 39 38 35 32 30 29 24 20 17 15 13 11 10 9 9 9 9 10 11 11 11 14 16 21 25 28 30 33 36 38 38 39 40 39
51 48 44 43 42 41 41 36 38 45 44 40 35 32 31 29 26 25 23 20 19 18 17 15 15 14 14 14 14 15 18 22 27 32 35 38 40 43 46 46 45 43 43
51 48 47 48 43 40 40 39 39 41 44 41 38 37 35 33 32 30 29 26 26 25 23 22 22 22 21 21 22 23 25 28 34 42 42 41 42 46 48 47 47 46 46
53 48 46 49 49 44 42 43 43 46 51 47 45 43 39 39 37 36 33 31 31 30 29 27 25 26 27 30 33 38 40 43 45 42 48 41 35 34 37 38 38 41 44
56 54 50 53 57 54 50 54 55 54 47 54 53 49 47 47 43 42 39 35 35 34 30 28 28 29 31 34 43 43 44 42 47 43 37 27 42 32 32 32 34 38 40
61 58 62 54 51 53 51 52 54 47 45 42 41 53 53 53 50 50 46 44 38 37 35 32 32 30 32 34 35 37 44 45 30 37 40 44 40 37 28 35 38 39 44
68 64 66 63 53 49 48 49 54 51 49 47 46 43 52 51 52 51 48 45 44 45 41 41 40 40 38 37 40 38 21 18 53 54 52 44 48 41 38 40 43 48 50
61 62 64 66 62 55 53 53 56 56 52 45 40 31 30 42 47 49 49 47 47 47 47 45 43 53 49 40 43 43 40 46 48 45 59 57 52 56 55 50 49 52 50
59 60 64 66 67 67 66 67 67 67 60 48 41 35 35 37 40 47 49 47 48 50 48 48 47 46 52 52 41 36 39 45 50 50 49 59 62 60 62 54 53 50 47
61 58 62 63 65 66 68 67 68 69 66 56 48 44 40 40 37 42 43 43 44 46 46 47 46 47 45 44 37 34 40 34 37 35 45 57 66 71 64 59 57 55 53
Wind_Direction_500mb
159 153 139 125 112 99 82 90 98 103 110 110 121 134 142 139 124 95 84 85 100 97 95 94 92 93 91 89 86 84 83 83 83 83 81 79 79 73 65 62 60 72 79
150 152 139 132 120 104 86 98 101 104 104 109 113 124 135 145 142 122 99 96 106 111 107 105 98 95 92 90 85 79 74 72 75 75 66 59 60 62 63 58 60 74 80
152 143 140 135 130 112 96 98 91 98 101 98 100 101 117 131 143 131 112 103 112 116 108 105 103 97 91 83 74 66 63 61 61 64 65 66 63 69 62 66 61 57 61
151 140 138 136 134 117 105 101 93 96 103 103 94 93 96 106 107 113 111 111 110 108 116 109 105 100 91 84 74 59 48 53 64 62 61 60 68 61 55 59 61 51 42
154 141 141 141 139 122 112 106 101 98 106 103 94 92 97 94 97 101 105 112 115 115 120 116 110 99 92 80 71 61 56 56 54 51 50 51 49 45 38 37 45 56 65
156 147 147 146 143 130 124 118 109 102 97 95 94 90 92 93 92 92 96 103 107 116 124 123 114 107 98 92 72 59 49 50 52 52 43 51 58 26 34 48 47 57 66
159 152 152 149 149 141 132 130 116 107 101 95 90 86 82 89 91 92 94 102 109 113 118 122 122 116 106 81 58 47 47 42 49 45 55 65 59 47 38 17 32 46 33
166 159 156 153 153 151 144 139 126 117 108 100 94 89 85 89 89 87 89 92 103 108 115 121 120 115 103 79 58 45 42 49 49 49 53 60 65 50 28 26 20 24 38
172 166 163 159 158 156 156 148 145 130 116 104 94 87 83 85 89 85 87 93 104 116 121 125 123 117 99 72 48 43 50 48 44 44 43 46 49 50 40 22 23 38 43
178 174 172 168 166 164 162 162 154 146 131 120 106 96 88 86 86 85 90 92 99 111 119 122 119 108 84 43 34 32 44 45 43 44 46 41 37 34 35 38 37 36 35
186 182 181 181 177 174 172 171 167 161 156 146 124 105 96 90 85 83 91 97 102 111 121 127 129 118 16 7 23 20 33 37 45 42 42 39 36 37 36 33 33 33 32
192 190 189 190 188 186 184 184 181 179 176 175 160 116 115 101 84 76 90 104 112 119 131 132 132 161 299 321 346 0 23 38 41 37 33 31 32 35 35 34 31 29 25
196 197 195 197 197 197 196 196 196 193 192 196 193 175 140 126 86 71 81 98 109 125 142 149 143 334 284 287 317 343 5 24 26 23 24 27 23 21 20 20 20 16 14
203 205 204 205 206 206 206 208 209 209 208 209 212 208 191 180 134 88 76 84 101 139 179 195 220 319 283 285 301 324 346 7 4 359 6 11 12 10 4 2 1 358 354
208 210 210 214 214 216 216 216 217 218 218 219 224 224 220 211 203 183 118 96 103 159 213 236 264 280 258 251 276 289 318 341 345 344 346 349 352 349 346 343 341 338 335
216 216 217 219 223 223 226 227 226 226 226 226 231 235 233 228 226 228 227 238 244 266 264 254 267 277 279 287 284 277 293 312 321 325 329 330 332 332 331 329 326 325 325
220 222 224 226 227 228 230 233 231 230 230 231 234 237 239 237 239 241 242 245 251 254 259 264 271 278 279 283 284 279 288 296 307 312 316 318 320 321 319 317 315 314 312
224 225 228 232 234 233 231 234 240 234 229 229 232 236 240 244 247 247 245 246 249 252 256 262 265 270 276 279 278 281 289 293 299 301 304 309 312 312 309 307 304 304 303
226 225 228 231 235 238 237 238 246 251 231 231 232 233 238 242 245 256 253 248 249 254 256 259 263 268 270 277 280 280 281 287 290 296 301 306 305 302 305 302 301 299 298
225 227 229 235 238 242 243 241 245 237 235 235 238 239 243 247 251 254 254 253 255 258 261 265 273 278 286 287 288 284 282 287 295 305 303 300 309 303 304 301 301 303 302
221 227 229 233 238 235 236 235 239 242 241 236 238 241 246 249 251 254 258 260 262 263 270 273 274 279 280 279 282 286 293 299 303 302 309 310 309 308 306 305 300 303 301
224 223 229 233 236 236 238 239 243 252 256 260 257 245 245 249 252 253 255 258 261 266 269 273 276 278 282 286 292 300 311 304 312 307 306 307 311 308 307 305 305 306 303
227 227 229 231 235 235 240 242 243 247 248 248 252 250 244 248 250 252 253 257 259 261 264 269 273 274 275 281 284 287 292 290 310 311 310 313 318 312 306 303 302 301 301
227 226 229 231 235 237 238 241 243 248 249 256 268 275 254 251 254 255 255 255 258 261 263 267 269 279 277 271 274 282 291 290 298 294 308 312 309 312 311 311 305 305 303
225 225 225 227 232 236 237 241 244 247 252 256 264 266 256 252 251 253 255 255 257 261 264 264 265 269 268 265 282 275 294 289 296 281 299 308 307 303 306 304 306 309 308
221 220 225 227 232 238 241 242 244 245 247 247 253 256 255 256 253 250 251 253 256 259 262 263 263 264 268 273 280 276 292 298 302 297 303 305 302 298 303 310 314 316 317
Wind_Speed_850mb
31 20 17 17 15 18 17 18 18 18 21 22 20 20 22 22 20 22 21 24 24 31 31 31 33 33 33 33 33 33 32 30 29 29 27 25 25 23 21 19 18 23 25
30 21 18 19 19 17 18 20 21 23 26 23 18 18 19 20 20 18 22 25 25 27 24 27 29 30 29 28 26 26 24 22 19 18 17 17 21 24 14 15 15 17 15
29 25 20 20 20 16 18 23 24 27 30 30 23 26 26 25 23 28 30 27 25 24 24 27 27 26 24 21 20 20 20 20 17 15 17 22 29 32 29 23 17 14 9
27 27 23 22 21 19 21 24 25 26 28 28 26 27 30 29 29 30 34 32 29 27 24 23 23 22 20 18 18 20 21 24 23 23 23 24 22 23 20 18 17 18 19
29 28 24 24 21 21 24 26 27 27 25 24 26 27 29 29 28 27 26 28 28 26 23 20 20 21 21 19 22 23 25 25 23 22 25 24 25 23 23 17 16 19 21
31 29 26 25 23 22 26 26 27 26 24 23 23 23 26 26 27 27 27 25 23 22 22 19 18 17 22 22 19 20 23 24 19 21 21 19 23 21 26 22 21 10 10
33 31 28 26 23 22 25 25 24 24 24 23 23 23 23 23 24 24 24 22 22 22 23 21 19 17 16 15 16 18 20 22 21 22 23 24 24 19 19 21 21 17 11
33 32 31 29 26 23 24 24 22 20 21 21 21 21 22 24 23 22 21 21 21 21 22 21 20 16 13 10 11 17 21 21 22 23 23 23 20 16 15 16 21 21 17
35 32 32 31 28 25 23 21 20 17 18 18 18 18 18 21 20 19 19 19 19 19 21 20 18 15 10 8 11 17 23 24 24 25 23 21 15 16 13 14 19 21 18
37 33 30 31 30 26 24 21 18 16 14 13 13 14 14 15 16 16 16 16 17 18 17 16 12 9 6 6 11 18 21 25 25 26 23 25 24 21 21 21 22 21 22
40 37 32 30 29 27 25 22 19 16 13 10 8 9 11 12 13 12 13 14 14 14 14 13 9 3 2 5 9 14 15 19 21 23 23 25 27 28 26 24 24 23 23
45 43 37 33 30 28 26 22 20 17 14 10 5 6 7 9 11 11 9 10 10 10 11 8 5 1 4 6 7 9 10 14 17 20 22 25 27 28 28 26 23 24 23
43 44 41 37 34 31 28 25 23 19 17 14 9 5 4 5 7 10 9 8 7 5 6 5 4 1 2 3 6 8 8 11 14 17 19 21 22 23 24 26 27 27 25
45 41 43 40 38 35 32 29 25 23 20 18 14 10 6 6 4 5 7 6 4 2 3 3 2 2 2 3 3 6 7 10 14 17 17 18 19 22 24 25 25 26 26
47 43 43 43 41 39 37 34 32 29 25 22 21 18 13 10 6 4 2 3 3 1 2 3 4 3 3 4 3 4 5 8 13 15 17 19 20 22 24 26 28 29 29
46 44 42 43 41 41 41 39 37 34 30 29 27 24 20 16 13 10 7 5 3 3 4 5 6 6 7 7 7 8 9 11 15 18 21 23 25 28 30 32 33 34 36
51 42 45 43 41 41 38 41 42 39 38 35 32 30 29 24 20 17 15 13 11 10 9 9 9 9 10 11 11 11 14 16 21 25 28 30 33 36 38 38 39 40 39
51 48 44 43 42 41 41 36 38 45 44 40 35 32 31 29 26 25 23 20 19 18 17 15 15 14 14 14 14 15 18 22 27 32 35 38 40 43 46 46 45 43 43
51 48 47 48 43 40 40 39 39 41 44 41 38 37 35 33 32 30 29 26 26 25 23 22 22 22 21 21 22 23 25 28 34 42 42 41 42 46 48 47 47 46 46
53 48 46 49 49 44 42 43 43 46 51 47 45 43 39 39 37 36 33 31 31 30 29 27 25 26 27 30 33 38 40 43 45 42 48 41 35 34 37 38 38 41 44
56 54 50 53 57 54 50 54 55 54 47 54 53 49 47 47 43 42 39 35 35 34 30 28 28 29 31 34 43 43 44 42 47 43 37 27 42 32 32 32 34 38 40
61 58 62 54 51 53 51 52 54 47 45 42 41 53 53 53 50 50 46 44 38 37 35 32 32 30 32 34 35 37 44 45 30 37 40 44 40 37 28 35 38 39 44
68 64 66 63 53 49 48 49 54 51 49 47 46 43 52 51 52 51 48 45 44 45 41 41 40 40 38 37 40 38 21 18 53 54 52 44 48 41 38 40 43 48 50
61 62 64 66 62 55 53 53 56 56 52 45 40 31 30 42 47 49 49 47 47 47 47 45 43 53 49 40 43 43 40 46 48 45 59 57 52 56 55 50 49 52 50
59 60 64 66 67 67 66 67 67 67 60 48 41 35 35 37 40 47 49 47 48 50 48 48 47 46 52 52 41 36 39 45 50 50 49 59 62 60 62 54 53 50 47
61 58 62 63 65 66 68 67 68 69 66 56 48 44 40 40 37 42 43 43 44 46 46 47 46 47 45 44 37 34 40 34 37 35 45 57 66 71 64 59 57 55 53
Wind_Direction_850mb
159 153 139 125 112 99 82 90 98 103 110 110 121 134 142 139 124 95 84 85 100 97 95 94 92 93 91 89 86 84 83 83 83 83 81 79 79 73 65 62 60 72 79
150 152 139 132 120 104 86 98 101 104 104 109 113 124 135 145 142 122 99 96 106 111 107 105 98 95 92 90 85 79 74 72 75 75 66 59 60 62 63 58 60 74 80
152 143 140 135 130 112 96 98 91 98 101 98 100 101 117 131 143 131 112 103 112 116 108 105 103 97 91 83 74 66 63 61 61 64 65 66 63 69 62 66 61 57 61
151 140 138 136 134 117 105 101 93 96 103 103 94 93 96 106 107 113 111 111 110 108 116 109 105 100 91 84 74 59 48 53 64 62 61 60 68 61 55 59 61 51 42
154 141 141 141 139 122 112 106 101 98 106 103 94 92 97 94 97 101 105 112 115 115 120 116 110 99 92 80 71 61 56 56 54 51 50 51 49 45 38 37 45 56 65
156 147 147 146 143 130 124 118 109 102 97 95 94 90 92 93 92 92 96 103 107 116 124 123 114 107 98 92 72 59 49 50 52 52 43 51 58 26 34 48 47 57 66
159 152 152 149 149 141 132 130 116 107 101 95 90 86 82 89 91 92 94 102 109 113 118 122 122 116 106 81 58 47 47 42 49 45 55 65 59 47 38 17 32 46 33
166 159 156 153 153 151 144 139 126 117 108 100 94 89 85 89 89 87 89 92 103 108 115 121 120 115 103 79 58 45 42 49 49 49 53 60 65 50 28 26 20 24 38
172 166 163 159 158 156 156 148 145 130 116 104 94 87 83 85 89 85 87 93 104 116 121 125 123 117 99 72 48 43 50 48 44 44 43 46 49 50 40 22 23 38 43
178 174 172 168 166 164 162 162 154 146 131 120 106 96 88 86 86 85 90 92 99 111 119 122 119 108 84 43 34 32 44 45 43 44 46 41 37 34 35 38 37 36 35
186 182 181 181 177 174 172 171 167 161 156 146 124 105 96 90 85 83 91 97 102 111 121 127 129 118 16 7 23 20 33 37 45 42 42 39 36 37 36 33 33 33 32
192 190 189 190 188 186 184 184 181 179 176 175 160 116 115 101 84 76 90 104 112 119 131 132 132 161 299 321 346 0 23 38 41 37 33 31 32 35 35 34 31 29 25
196 197 195 197 197 197 196 196 196 193 192 196 193 175 140 126 86 71 81 98 109 125 142 149 143 334 284 287 317 343 5 24 26 23 24 27 23 21 20 20 20 16 14
203 205 204 205 206 206 206 208 209 209 208 209 212 208 191 180 134 88 76 84 101 139 179 195 220 319 283 285 301 324 346 7 4 359 6 11 12 10 4 2 1 358 354
208 210 210 214 214 216 216 216 217 218 218 219 224 224 220 211 203 183 118 96 103 159 213 236 264 280 258 251 276 289 318 341 345 344 346 349 352 349 346 343 341 338 335
216 216 217 219 223 223 226 227 226 226 226 226 231 235 233 228 226 228 227 238 244 266 264 254 267 277 279 287 284 277 293 312 321 325 329 330 332 332 331 329 326 325 325
220 222 224 226 227 228 230 233 231 230 230 231 234 237 239 237 239 241 242 245 251 254 259 264 271 278 279 283 284 279 288 296 307 312 316 318 320 321 319 317 315 314 312
224 225 228 232 234 233 231 234 240 234 229 229 232 236 240 244 247 247 245 246 249 252 256 262 265 270 276 279 278 281 289 293 299 301 304 309 312 312 309 307 304 304 303
226 225 228 231 235 238 237 238 246 251 231 231 232 233 238 242 245 256 253 248 249 254 256 259 263 268 270 277 280 280 281 287 290 296 301 306 305 302 305 302 301 299 298
225 227 229 235 238 242 243 241 245 237 235 235 238 239 243 247 251 254 254 253 255 258 261 265 273 278 286 287 288 284 282 287 295 305 303 300 309 303 304 301 301 303 302
221 227 229 233 238 235 236 235 239 242 241 236 238 241 246 249 251 254 258 260 262 263 270 273 274 279 280 279 282 286 293 299 303 302 309 310 309 308 306 305 300 303 301
224 223 229 233 236 236 238 239 243 252 256 260 257 245 245 249 252 253 255 258 261 266 269 273 276 278 282 286 292 300 311 304 312 307 306 307 311 308 307 305 305 306 303
227 227 229 231 235 235 240 242 243 247 248 248 252 250 244 248 250 252 253 257 259 261 264 269 273 274 275 281 284 287 292 290 310 311 310 313 318 312 306 303 302 301 301
227 226 229 231 235 237 238 241 243 248 249 256 268 275 254 251 254 255 255 255 258 261 263 267 269 279 277 271 274 282 291 290 298 294 308 312 309 312 311 311 305 305 303
225 225 225 227 232 236 237 241 244 247 252 256 264 266 256 252 251 253 255 255 257 261 264 264 265 269 268 265 282 275 294 289 296 281 299 308 307 303 306 304 306 309 308
221 220 225 227 232 238 241 242 244 245 247 247 253 256 255 256 253 250 251 253 256 259 262 263 263 264 268 273 280 276 292 298 302 297 303 305 302 298 303 310 314 316 317